Weather History for Olathe New Century, KS

Change the Weather History Date:

Thursday, October 18, 2012

  Actual Average Record
Temperature  
Mean Temperature 53 °F -  
Max Temperature 60 °F 64 °F 82 °F (2005)
Min Temperature 46 °F 43 °F 30 °F (1999)
Degree Days  
Heating Degree Days 12    
Growing Degree Days 3 (Base 50)    
Moisture  
Dew Point 28 °F    
Average Humidity 41    
Maximum Humidity 59    
Minimum Humidity 27    
Precipitation  
Precipitation 0.00 in - - ()
Sea Level Pressure  
Sea Level Pressure 29.68 in    
Wind  
Wind Speed 15 mph (West)    
Max Wind Speed 28 mph    
Max Gust Speed 39 mph    
Visibility 10 miles    
Events Rain    
Averages and records for this station are not official NWS values.
T = Trace of Precipitation, MM = Missing Value Source: NWS Daily Summary

Daily Weather History Graph

Daily Weather History Graph

Search for Another Location

Airport:

Trip Planner

Search our weather history database for the weather conditions in past years. The results will help you decide how hot, cold, wet, or windy it might be!

Date:

Astronomy

Oct. 18, 2012 Rise Set
Actual Time 7:32 AM CDT 6:36 PM CDT
Civil Twilight 7:05 AM CDT 7:03 PM CDT
Nautical Twilight 6:34 AM CDT 7:34 PM CDT
Astronomical Twilight 6:03 AM CDT 8:04 PM CDT
Moon 11:13 AM CDT (10/18) 9:13 PM CDT (10/18)
Length of Visible Light 11h 57m
Length of Day
11h 03m
Waxing Crescent, 14% of the Moon is Illuminated
Oct 18
Waxing Crescent
Oct 21
First Quarter
Oct 29
Full
Nov 6
Last Quarter
Nov 13
New

Hourly Weather History & Observations

Time (CDT) Temp. Dew Point Humidity Pressure Visibility Wind Dir Wind Speed Gust Speed Precip Events Conditions
12:53 AM 46.9 °F 28.9 °F 50% 29.68 in 10.0 mi SW 5.8 mph - N/A   Clear
1:53 AM 48.0 °F 26.1 °F 42% 29.70 in 10.0 mi WSW 10.4 mph - N/A   Clear
2:53 AM 46.9 °F 27.0 °F 46% 29.69 in 10.0 mi WSW 9.2 mph - N/A   Clear
3:53 AM 48.0 °F 26.1 °F 42% 29.68 in 10.0 mi WSW 10.4 mph - N/A   Clear
4:53 AM 48.0 °F 26.1 °F 42% 29.69 in 10.0 mi West 12.7 mph - N/A   Clear
5:53 AM 48.0 °F 25.0 °F 41% 29.70 in 10.0 mi West 13.8 mph - N/A   Clear
6:53 AM 48.0 °F 24.1 °F 39% 29.69 in 10.0 mi West 15.0 mph 24.2 mph N/A   Clear
7:53 AM 46.9 °F 24.1 °F 41% 29.70 in 10.0 mi West 13.8 mph 20.7 mph N/A   Clear
8:53 AM 48.0 °F 26.1 °F 42% 29.69 in 10.0 mi West 18.4 mph 28.8 mph N/A   Clear
9:53 AM 50.0 °F 27.0 °F 41% 29.68 in 10.0 mi West 18.4 mph 31.1 mph N/A   Mostly Cloudy
10:53 AM 55.0 °F 27.0 °F 34% 29.67 in 10.0 mi West 26.5 mph 35.7 mph N/A   Clear
11:53 AM 57.0 °F 26.1 °F 30% 29.67 in 10.0 mi WNW 26.5 mph 32.2 mph N/A   Partly Cloudy
12:53 PM 59.0 °F 27.0 °F 29% 29.66 in 10.0 mi West 27.6 mph 39.1 mph N/A   Partly Cloudy
1:53 PM 60.1 °F 26.1 °F 27% 29.65 in 10.0 mi West 26.5 mph 35.7 mph N/A   Clear
2:53 PM 57.9 °F 26.1 °F 30% 29.64 in 10.0 mi West 20.7 mph 34.5 mph N/A   Mostly Cloudy
3:53 PM 57.0 °F 27.0 °F 32% 29.65 in 10.0 mi West 17.3 mph 28.8 mph N/A   Overcast
4:53 PM 55.9 °F 28.9 °F 36% 29.66 in 10.0 mi WNW 18.4 mph 27.6 mph N/A   Overcast
5:53 PM 55.0 °F 30.0 °F 38% 29.68 in 8.0 mi WNW 15.0 mph 24.2 mph N/A   Overcast
6:53 PM 51.1 °F 34.0 °F 52% 29.70 in 10.0 mi WNW 25.3 mph 33.4 mph 0.00 in Rain Light Rain
7:53 PM 53.1 °F 32.0 °F 45% 29.70 in 10.0 mi WNW 21.9 mph 32.2 mph 0.00 in   Overcast
8:53 PM 53.1 °F 33.1 °F 47% 29.70 in 10.0 mi West 26.5 mph 34.5 mph N/A   Overcast
10:53 PM 51.1 °F 35.1 °F 54% 29.71 in 10.0 mi WNW 18.4 mph 27.6 mph N/A   Overcast
11:53 PM 50.0 °F 36.0 °F 59% 29.70 in 10.0 mi WNW 13.8 mph 20.7 mph N/A   Overcast